{"data":{"norad_id":62478,"intl_designator":"2024-254S","name":"STARLINK-32707","alt_names":[],"object_type":"PAYLOAD","status":"ACTIVE","operator":null,"country":"US","launch_date":"2024-12-31","launch_site_code":"AFETR","launch_vehicle":null,"mission":null,"orbit_class":"UNKNOWN","rcs_meters":null,"size_class":null,"mass_kg":null,"dimensions":null,"purposes":["comms"],"wikipedia_slug":null,"has_3d_model":false,"image_url":null,"decayed_at":null,"tle_current":{"epoch":"2026-05-25T03:09:25.409376Z","epoch_age_seconds":74268,"freshness":"FRESH","line1":"1 62478U 24254S   26145.13154409  .00011629  00000+0  43143-3 0  9995","line2":"2 62478  43.0007 304.6740 0001380 274.0513  86.0181 15.27581223 79344","mean_motion":15.27581223,"eccentricity":0.000138,"inclination_deg":43.0007,"raan_deg":304.674,"arg_perigee_deg":274.0513,"mean_anomaly_deg":86.0181,"bstar":0.00043143,"rev_number":7934,"period_min":94.266673242553,"perigee_km":482.09859076424,"apogee_km":483.99227711601,"semimajor_km":6861.1824339401,"source":"CELESTRAK","updated_at":"2026-05-25T13:38:19.694839Z"}}}